Location: Bartlow
(52.0833°N, 0.3167°E)
Time: 07:15:49
(UTC+00:00)

Meteor 2-17 Rocket - Pass Details

Date: 02 May 2024
Orbit: 934 x 957 km, 82.5° (Epoch: 26 May)

Event Time Altitude Azimuth Distance (km) Brightness Sun altitude
Exits shadow 01:40:29 26° 239° (WSW) 1,773 5.4 -18.7°
Maximum altitude 01:43:20 41° 291° (WNW) 1,343 5.2 -18.5°
Drops below altitude 10° 01:49:04 10° 1° (N) 2,664 7.7 -18.1°
Sets 01:51:43 0° 8° (N) 3,610 8.8 -17.9°
